{"data":{"norad_id":68018,"intl_designator":"2026-040D","name":"STARLINK-36930","alt_names":[],"object_type":"PAYLOAD","status":"ACTIVE","operator":null,"country":"US","launch_date":"2026-03-01","launch_site_code":"AFWTR","launch_vehicle":null,"mission":null,"orbit_class":"UNKNOWN","rcs_meters":null,"size_class":null,"mass_kg":null,"dimensions":null,"purposes":["comms"],"wikipedia_slug":null,"has_3d_model":false,"image_url":null,"decayed_at":null,"tle_current":{"epoch":"2026-05-25T03:08:25.930752Z","epoch_age_seconds":63843,"freshness":"FRESH","line1":"1 68018U 26040D   26145.13085568  .00018600  00000+0  57680-3 0  9992","line2":"2 68018  97.2831  94.0817 0001303  86.2583 273.8808 15.33458358 13176","mean_motion":15.33458358,"eccentricity":0.0001303,"inclination_deg":97.2831,"raan_deg":94.0817,"arg_perigee_deg":86.2583,"mean_anomaly_deg":273.8808,"bstar":0.0005768,"rev_number":1317,"period_min":93.905386637177,"perigee_km":464.61170440867,"apogee_km":466.39515710492,"semimajor_km":6843.6404307568,"source":"CELESTRAK","updated_at":"2026-05-25T13:38:21.804638Z"}}}